Weather History for KMKL - May, 2013

Change the Weather History Date:

Friday, May 10, 2013

  Actual Average Record
Temperature  
Mean Temperature 69 °F 67 °F  
Max Temperature 74 °F 78 °F 91 °F (1962)
Min Temperature 63 °F 56 °F 37 °F (1966)
Degree Days  
Heating Degree Days 0 2  
Month to date heating degree days 50 24  
Since 1 July heating degree days 3634 3550  
Cooling Degree Days 4 4  
Month to date cooling degree days 12 33  
Year to date cooling degree days 68 92  
Growing Degree Days 16 (Base 50)    
Moisture  
Dew Point 63 °F    
Average Humidity 84    
Maximum Humidity 100    
Minimum Humidity 68    
Precipitation  
Precipitation 1.51 in 0.19 in 5.01 in (1974)
Month to date precipitation 3.24 1.89  
Year to date precipitation 29.63 19.74  
Snow  
Snow 0.00 in 0.00 in - ()
Month to date snowfall 0.0 0.0  
Since 1 July snowfall 1.4 4.6  
Snow Depth 0.00 in    
Sea Level Pressure  
Sea Level Pressure 29.92 in    
Wind  
Wind Speed 7 mph (SSW)    
Max Wind Speed 23 mph    
Max Gust Speed 28 mph    
Visibility 8 miles    
Events Rain , Thunderstorm    
T = Trace of Precipitation, MM = Missing Value Source: NWS Daily Summary

Daily Weather History Graph

Daily Weather History Graph

Search for Another Location

Airport or City:

Trip Planner

Search our weather history database for the weather conditions in past years. The results will help you decide how hot, cold, wet, or windy it might be!

Date:

Astronomy

May. 10, 2013 Rise Set
Actual Time 5:54 AM CDT 7:49 PM CDT
Civil Twilight 5:26 AM CDT 8:17 PM CDT
Nautical Twilight 4:52 AM CDT 8:51 PM CDT
Astronomical Twilight 4:16 AM CDT 9:28 PM CDT
Moon 6:19 AM CDT (5/10) 8:38 PM CDT (5/10)
Length of Visible Light 14h 51m
Length of Day
13h 55m
New Moon, 0% of the Moon is Illuminated
May 10
New Moon
May 17
First Quarter
May 24
Full
May 31
Last Quarter
Jun 8
New

Hourly Weather History & Observations

Time (CDT) Temp. Dew Point Humidity Pressure Visibility Wind Dir Wind Speed Gust Speed Precip Events Conditions
12:53 AM 71.1 °F 61.0 °F 70% 29.96 in 10.0 mi South 4.6 mph - N/A   Overcast
1:53 AM 70.0 °F 61.0 °F 73% 29.92 in 10.0 mi South 4.6 mph - N/A   Partly Cloudy
3:01 AM 66.2 °F 62.6 °F 88% 29.95 in 8.0 mi WSW 15.0 mph 27.6 mph 0.01 in Rain , Thunderstorm Light Rain
3:22 AM 64.4 °F 62.6 °F 94% 29.95 in 6.0 mi WSW 13.8 mph - 0.06 in Rain , Thunderstorm Rain
3:43 AM 64.4 °F 62.6 °F 94% 29.94 in 9.0 mi WSW 3.5 mph - 0.08 in Rain Light Rain
3:53 AM 64.9 °F 63.0 °F 93% 29.93 in 9.0 mi Calm Calm - 0.09 in Rain Light Rain
4:09 AM 64.4 °F 62.6 °F 94% 29.95 in 10.0 mi Calm Calm - 0.00 in   Overcast
4:53 AM 64.0 °F 63.0 °F 96% 29.92 in 10.0 mi Calm Calm - 0.00 in Rain Light Rain
5:23 AM 64.4 °F 62.6 °F 94% 29.93 in 4.0 mi SSE 5.8 mph - 0.05 in Rain Heavy Rain
5:29 AM 64.4 °F 62.6 °F 94% 29.93 in 2.0 mi SSE 3.5 mph - 0.12 in Rain Heavy Rain
5:53 AM 63.0 °F 62.1 °F 97% 29.91 in 4.0 mi Calm Calm - 0.28 in Rain Heavy Rain
6:11 AM 62.6 °F 62.6 °F 100% 29.91 in 2.0 mi ESE 4.6 mph - 0.17 in Rain Heavy Rain
6:15 AM 62.6 °F 62.6 °F 100% 29.91 in 1.8 mi ESE 4.6 mph - 0.26 in Rain Heavy Rain
6:25 AM 62.6 °F 62.6 °F 100% 29.91 in 2.5 mi ESE 5.8 mph - 0.37 in Rain Heavy Rain
6:33 AM 62.6 °F 62.6 °F 100% 29.91 in 6.0 mi Calm Calm - 0.37 in Rain Light Rain
6:44 AM 62.6 °F 62.6 °F 100% 29.91 in 2.0 mi SE 5.8 mph - 0.53 in Rain Heavy Rain
6:50 AM 62.6 °F 62.6 °F 100% 29.91 in 1.2 mi Variable 4.6 mph - 0.67 in Rain Heavy Rain
6:51 AM 63.0 °F 62.1 °F 97% 29.90 in 1.2 mi Calm Calm - 0.68 in Rain Heavy Rain
7:07 AM 64.4 °F 62.6 °F 94% 29.91 in 3.0 mi South 12.7 mph - 0.23 in Rain Rain
7:22 AM 64.4 °F 62.6 °F 94% 29.92 in 4.0 mi SSW 11.5 mph - 0.27 in Rain Rain
7:36 AM 64.4 °F 62.6 °F 94% 29.92 in 3.0 mi SSW 11.5 mph - 0.33 in Rain Rain
7:53 AM 64.9 °F 63.0 °F 93% 29.92 in 7.0 mi SSW 6.9 mph - 0.37 in Rain Light Rain
8:37 AM 66.2 °F 64.4 °F 94% 29.93 in 10.0 mi SSW 8.1 mph - 0.01 in   Overcast
8:51 AM 66.2 °F 64.4 °F 94% 29.94 in 10.0 mi SSW 5.8 mph - 0.01 in   Overcast
8:53 AM 66.0 °F 64.0 °F 93% 29.93 in 10.0 mi South 5.8 mph - 0.01 in   Overcast
9:21 AM 66.2 °F 64.4 °F 94% 29.93 in 10.0 mi SSW 10.4 mph - 0.00 in   Overcast
9:30 AM 66.2 °F 64.4 °F 94% 29.93 in 10.0 mi SSW 11.5 mph 17.3 mph 0.00 in   Overcast
9:53 AM 66.0 °F 64.0 °F 93% 29.93 in 8.0 mi SSW 11.5 mph - 0.01 in Rain Light Rain
10:53 AM 66.9 °F 64.0 °F 90% 29.93 in 10.0 mi South 11.5 mph - 0.02 in   Overcast
11:53 AM 66.9 °F 64.0 °F 90% 29.94 in 10.0 mi SSW 13.8 mph - N/A   Overcast
12:53 PM 69.1 °F 64.9 °F 87% 29.92 in 10.0 mi SSW 11.5 mph 19.6 mph 0.00 in Rain Light Rain
1:33 PM 69.8 °F 64.4 °F 83% 29.92 in 8.0 mi SW 8.1 mph - 0.01 in Rain Light Rain
1:53 PM 70.0 °F 64.9 °F 84% 29.91 in 10.0 mi SW 11.5 mph 19.6 mph 0.01 in   Overcast
2:05 PM 69.8 °F 64.4 °F 83% 29.91 in 10.0 mi SW 10.4 mph 18.4 mph N/A   Overcast
2:53 PM 71.1 °F 64.0 °F 78% 29.90 in 10.0 mi SW 13.8 mph - N/A   Overcast
3:53 PM 71.1 °F 64.9 °F 81% 29.90 in 10.0 mi SSW 10.4 mph - N/A   Overcast
4:53 PM 69.1 °F 64.0 °F 84% 29.90 in 7.0 mi SW 6.9 mph - 0.00 in Rain Light Rain
5:53 PM 70.0 °F 64.0 °F 81% 29.87 in 10.0 mi SSW 4.6 mph - 0.00 in   Overcast
6:53 PM 69.1 °F 64.9 °F 87% 29.88 in 10.0 mi SSW 6.9 mph - N/A   Clear
7:53 PM 66.9 °F 64.0 °F 90% 29.90 in 10.0 mi SSW 5.8 mph - N/A   Clear
8:53 PM 66.0 °F 64.0 °F 93% 29.90 in 10.0 mi Calm Calm - N/A   Clear
9:53 PM 66.0 °F 64.9 °F 96% 29.92 in 10.0 mi SSW 8.1 mph - N/A   Clear
10:53 PM 66.0 °F 64.0 °F 93% 29.94 in 10.0 mi SSW 8.1 mph - N/A   Clear
11:53 PM 64.0 °F 63.0 °F 96% 29.94 in 10.0 mi SSW 8.1 mph - 0.01 in   Clear